Time,TemperatureF,DewpointF,PressureIn,WindDirection,WindDirectionDegrees,WindSpeedMPH,WindSpeedGustMPH,Humidity,HourlyPrecipIn,Conditions,Clouds,dailyrainin,SoftwareType,DateUTC
2013-06-13 00:00:00,63.1,53.6,29.14,NNE,23,0.0,3.0,71,0.00,,,0.00,meteohub,2013-06-13 04:00:00,
2013-06-13 00:01:00,63.1,53.6,29.14,NNE,23,0.0,3.0,71,0.00,,,0.00,meteohub,2013-06-13 04:01:00,
2013-06-13 00:06:00,62.8,53.6,29.14,NNE,23,2.0,2.0,72,0.00,,,0.00,meteohub,2013-06-13 04:06:00,
2013-06-13 00:11:00,62.4,53.2,29.14,SW,225,0.0,2.0,72,0.00,,,0.00,meteohub,2013-06-13 04:11:00,
2013-06-13 00:17:00,62.1,52.9,29.14,NW,315,0.0,2.0,72,0.00,,,0.00,meteohub,2013-06-13 04:17:00,
2013-06-13 00:22:00,61.7,52.5,29.14,WNW,293,0.0,2.0,72,0.00,,,0.00,meteohub,2013-06-13 04:22:00,
2013-06-13 00:27:00,61.3,52.2,29.14,NW,315,0.0,0.0,72,0.00,,,0.00,meteohub,2013-06-13 04:27:00,
2013-06-13 00:32:00,61.0,52.0,29.14,NW,315,0.0,0.0,72,0.00,,,0.00,meteohub,2013-06-13 04:32:00,
2013-06-13 00:37:00,60.6,52.0,29.14,WSW,248,0.0,0.0,73,0.00,,,0.00,meteohub,2013-06-13 04:37:00,
2013-06-13 00:42:00,60.4,51.8,29.14,WNW,293,0.0,0.0,73,0.00,,,0.00,meteohub,2013-06-13 04:42:00,
2013-06-13 00:47:00,60.3,51.6,29.14,WNW,293,0.0,0.0,73,0.00,,,0.00,meteohub,2013-06-13 04:47:00,
2013-06-13 00:52:00,60.1,51.4,29.14,NNW,338,0.0,0.0,73,0.00,,,0.00,meteohub,2013-06-13 04:52:00,
2013-06-13 00:57:00,59.9,51.3,29.14,North,0,0.0,0.0,73,0.00,,,0.00,meteohub,2013-06-13 04:57:00,
2013-06-13 01:02:00,59.7,51.1,29.14,NNE,23,0.0,0.0,73,0.00,,,0.00,meteohub,2013-06-13 05:02:00,
2013-06-13 01:07:00,59.5,50.9,29.14,NNE,23,0.0,0.0,73,0.00,,,0.00,meteohub,2013-06-13 05:07:00,
2013-06-13 01:12:00,59.2,50.5,29.14,SW,225,0.0,0.0,73,0.00,,,0.00,meteohub,2013-06-13 05:12:00,
2013-06-13 01:17:00,59.0,50.4,29.14,NNE,23,0.0,0.0,73,0.00,,,0.00,meteohub,2013-06-13 05:17:00,
2013-06-13 01:22:00,59.0,50.7,29.14,NE,45,0.0,0.0,74,0.00,,,0.00,meteohub,2013-06-13 05:22:00,
2013-06-13 01:27:00,59.0,50.7,29.14,NNE,23,0.0,0.0,74,0.00,,,0.00,meteohub,2013-06-13 05:27:00,
2013-06-13 01:32:00,58.8,50.5,29.14,NE,45,0.0,0.0,74,0.00,,,0.00,meteohub,2013-06-13 05:32:00,
2013-06-13 01:37:00,58.5,50.2,29.14,NNE,23,0.0,0.0,74,0.00,,,0.00,meteohub,2013-06-13 05:37:00,
2013-06-13 01:42:00,58.5,50.2,29.14,NNE,23,0.0,0.0,74,0.00,,,0.00,meteohub,2013-06-13 05:42:00,
2013-06-13 01:47:00,58.3,50.0,29.14,NE,45,0.0,0.0,74,0.00,,,0.00,meteohub,2013-06-13 05:47:00,
2013-06-13 01:52:00,58.1,49.8,29.14,NNE,23,0.0,0.0,74,0.00,,,0.00,meteohub,2013-06-13 05:52:00,
2013-06-13 01:57:00,58.1,49.8,29.14,SSW,203,0.0,0.0,74,0.00,,,0.00,meteohub,2013-06-13 05:57:00,
2013-06-13 02:02:00,58.1,49.8,29.14,WSW,248,0.0,0.0,74,0.00,,,0.00,meteohub,2013-06-13 06:02:00,
2013-06-13 02:07:00,57.9,49.6,29.14,WNW,293,0.0,0.0,74,0.00,,,0.00,meteohub,2013-06-13 06:07:00,
2013-06-13 02:12:00,57.7,49.5,29.14,NNE,23,0.0,0.0,74,0.00,,,0.00,meteohub,2013-06-13 06:12:00,
2013-06-13 02:17:00,57.4,48.7,29.14,NNE,23,0.0,1.0,73,0.00,,,0.00,meteohub,2013-06-13 06:17:00,
2013-06-13 02:22:00,57.2,48.6,29.14,North,0,0.0,1.0,73,0.00,,,0.00,meteohub,2013-06-13 06:22:00,
2013-06-13 02:27:00,57.2,48.6,29.14,NNE,23,0.0,1.0,73,0.00,,,0.00,meteohub,2013-06-13 06:27:00,
2013-06-13 02:32:00,57.0,48.7,29.14,NE,45,0.0,0.0,74,0.00,,,0.00,meteohub,2013-06-13 06:32:00,
2013-06-13 02:37:00,56.8,48.6,29.14,North,0,0.0,0.0,74,0.00,,,0.00,meteohub,2013-06-13 06:37:00,
2013-06-13 02:42:00,56.7,48.4,29.14,NE,45,0.0,0.0,74,0.00,,,0.00,meteohub,2013-06-13 06:42:00,
2013-06-13 02:47:00,56.7,48.4,29.14,NE,45,0.0,0.0,74,0.00,,,0.00,meteohub,2013-06-13 06:47:00,
2013-06-13 02:52:00,56.3,47.8,29.14,NNE,23,0.0,2.0,73,0.00,,,0.00,meteohub,2013-06-13 06:52:00,
2013-06-13 02:57:00,56.1,47.7,29.14,NNE,23,0.0,2.0,73,0.00,,,0.00,meteohub,2013-06-13 06:57:00,
2013-06-13 03:02:00,55.9,47.5,29.14,North,0,0.0,2.0,73,0.00,,,0.00,meteohub,2013-06-13 07:02:00,
2013-06-13 03:07:00,55.8,47.3,29.14,North,0,0.0,0.0,73,0.00,,,0.00,meteohub,2013-06-13 07:07:00,
2013-06-13 03:12:00,55.8,47.3,29.14,WNW,293,0.0,0.0,73,0.00,,,0.00,meteohub,2013-06-13 07:12:00,
2013-06-13 03:17:00,55.8,47.3,29.14,WSW,248,0.0,0.0,73,0.00,,,0.00,meteohub,2013-06-13 07:17:00,
2013-06-13 03:22:00,55.6,47.1,29.14,NE,45,0.0,2.0,73,0.00,,,0.00,meteohub,2013-06-13 07:22:00,
2013-06-13 03:27:00,55.2,46.8,29.14,North,0,0.0,2.0,73,0.00,,,0.00,meteohub,2013-06-13 07:27:00,
2013-06-13 03:32:00,55.0,46.6,29.14,NNE,23,0.0,2.0,73,0.00,,,0.00,meteohub,2013-06-13 07:32:00,
2013-06-13 03:37:00,54.9,46.4,29.14,NNE,23,0.0,0.0,73,0.00,,,0.00,meteohub,2013-06-13 07:37:00,
2013-06-13 03:42:00,54.7,45.9,29.14,NE,45,0.0,0.0,72,0.00,,,0.00,meteohub,2013-06-13 07:42:00,
2013-06-13 03:47:00,54.9,46.0,29.14,NNE,23,0.0,2.0,72,0.00,,,0.00,meteohub,2013-06-13 07:47:00,
2013-06-13 03:52:00,55.0,46.2,29.14,SW,225,2.0,2.0,72,0.00,,,0.00,meteohub,2013-06-13 07:52:00,
2013-06-13 03:57:00,55.2,46.4,29.14,SSE,158,0.0,2.0,72,0.00,,,0.00,meteohub,2013-06-13 07:57:00,
2013-06-13 04:02:00,55.2,46.4,29.14,SSW,203,0.0,2.0,72,0.00,,,0.00,meteohub,2013-06-13 08:02:00,
2013-06-13 04:07:00,55.2,46.4,29.14,South,180,0.0,2.0,72,0.00,,,0.00,meteohub,2013-06-13 08:07:00,
2013-06-13 04:12:00,55.2,46.4,29.14,NNE,23,2.0,2.0,72,0.00,,,0.00,meteohub,2013-06-13 08:12:00,
2013-06-13 04:17:00,55.0,46.6,29.14,NNE,23,0.0,2.0,73,0.00,,,0.00,meteohub,2013-06-13 08:17:00,
2013-06-13 04:22:00,55.0,46.6,29.14,ESE,113,0.0,2.0,73,0.00,,,0.00,meteohub,2013-06-13 08:22:00,
2013-06-13 04:27:00,54.9,46.0,29.14,East,90,0.0,2.0,72,0.00,,,0.00,meteohub,2013-06-13 08:27:00,
2013-06-13 04:32:00,54.9,46.4,29.14,NNE,23,2.0,2.0,73,0.00,,,0.00,meteohub,2013-06-13 08:32:00,
2013-06-13 04:37:00,54.5,46.0,29.14,East,90,0.0,2.0,73,0.00,,,0.00,meteohub,2013-06-13 08:37:00,
2013-06-13 04:42:00,54.5,46.0,29.14,NNE,23,0.0,2.0,73,0.00,,,0.00,meteohub,2013-06-13 08:42:00,
2013-06-13 04:47:00,54.5,46.0,29.14,NE,45,0.0,2.0,73,0.00,,,0.00,meteohub,2013-06-13 08:47:00,
2013-06-13 04:52:00,54.5,46.0,29.14,WNW,293,0.0,2.0,73,0.00,,,0.00,meteohub,2013-06-13 08:52:00,
2013-06-13 04:57:00,54.5,46.0,29.14,NW,315,0.0,2.0,73,0.00,,,0.00,meteohub,2013-06-13 08:57:00,
2013-06-13 05:02:00,54.3,45.9,29.14,SW,225,0.0,2.0,73,0.00,,,0.00,meteohub,2013-06-13 09:02:00,
2013-06-13 05:07:00,54.0,45.5,29.14,NE,45,0.0,2.0,73,0.00,,,0.00,meteohub,2013-06-13 09:07:00,
2013-06-13 05:12:00,53.4,45.0,29.14,NNE,23,0.0,2.0,73,0.00,,,0.00,meteohub,2013-06-13 09:12:00,
2013-06-13 05:17:00,52.9,44.4,29.14,NE,45,0.0,2.0,73,0.00,,,0.00,meteohub,2013-06-13 09:17:00,
2013-06-13 05:22:00,52.5,44.1,29.14,NNE,23,0.0,2.0,73,0.00,,,0.00,meteohub,2013-06-13 09:22:00,
2013-06-13 05:27:00,52.3,43.5,29.14,NE,45,0.0,2.0,72,0.00,,,0.00,meteohub,2013-06-13 09:27:00,
2013-06-13 05:32:00,52.2,43.3,29.14,NE,45,0.0,0.0,72,0.00,,,0.00,meteohub,2013-06-13 09:32:00,
2013-06-13 05:37:00,52.0,43.2,29.14,NE,45,0.0,0.0,72,0.00,,,0.00,meteohub,2013-06-13 09:37:00,
2013-06-13 05:42:00,51.8,43.0,29.14,NNE,23,0.0,0.0,72,0.00,,,0.00,meteohub,2013-06-13 09:42:00,
2013-06-13 05:47:00,51.6,42.4,29.14,NE,45,0.0,0.0,71,0.00,,,0.00,meteohub,2013-06-13 09:47:00,
2013-06-13 05:52:00,51.4,42.4,29.14,NE,45,0.0,0.0,71,0.00,,,0.00,meteohub,2013-06-13 09:52:00,
2013-06-13 05:57:00,51.4,42.4,29.14,NE,45,0.0,0.0,71,0.00,,,0.00,meteohub,2013-06-13 09:57:00,
2013-06-13 06:02:00,51.3,42.3,29.14,SW,225,0.0,0.0,71,0.00,,,0.00,meteohub,2013-06-13 10:02:00,
2013-06-13 06:07:00,51.1,41.7,29.14,SW,225,0.0,0.0,70,0.00,,,0.00,meteohub,2013-06-13 10:07:00,
2013-06-13 06:12:00,50.9,41.5,29.14,NE,45,0.0,0.0,70,0.00,,,0.00,meteohub,2013-06-13 10:12:00,
2013-06-13 06:17:00,50.9,41.5,29.14,WSW,248,0.0,0.0,70,0.00,,,0.00,meteohub,2013-06-13 10:17:00,
2013-06-13 06:22:00,50.7,41.0,29.14,SW,225,0.0,0.0,69,0.00,,,0.00,meteohub,2013-06-13 10:22:00,
2013-06-13 06:27:00,50.7,41.0,29.14,NNE,23,0.0,0.0,69,0.00,,,0.00,meteohub,2013-06-13 10:27:00,
2013-06-13 06:32:00,50.5,40.8,29.14,NE,45,0.0,2.0,69,0.00,,,0.00,meteohub,2013-06-13 10:32:00,
2013-06-13 06:37:00,50.2,40.1,29.14,NE,45,2.0,2.0,68,0.00,,,0.00,meteohub,2013-06-13 10:37:00,
2013-06-13 06:42:00,50.2,39.6,29.14,North,0,0.0,2.0,67,0.00,,,0.00,meteohub,2013-06-13 10:42:00,
2013-06-13 06:47:00,50.2,39.2,29.14,NE,45,0.0,2.0,66,0.00,,,0.00,meteohub,2013-06-13 10:47:00,
2013-06-13 06:52:00,50.2,39.2,29.14,NNE,23,0.0,2.0,66,0.00,,,0.00,meteohub,2013-06-13 10:52:00,
2013-06-13 06:57:00,50.5,39.2,29.14,NNE,23,0.0,0.0,65,0.00,,,0.00,meteohub,2013-06-13 10:57:00,
2013-06-13 07:02:00,50.9,39.2,29.14,NNE,23,0.0,0.0,64,0.00,,,0.00,meteohub,2013-06-13 11:02:00,
2013-06-13 07:08:00,51.1,38.8,29.14,NE,45,0.0,0.0,63,0.00,,,0.00,meteohub,2013-06-13 11:08:00,
2013-06-13 07:13:00,51.3,39.0,29.14,WSW,248,0.0,0.0,63,0.00,,,0.00,meteohub,2013-06-13 11:13:00,
2013-06-13 07:18:00,51.4,39.2,29.14,SW,225,0.0,0.0,63,0.00,,,0.00,meteohub,2013-06-13 11:18:00,
2013-06-13 07:23:00,51.6,39.0,29.14,ENE,68,0.0,2.0,62,0.00,,,0.00,meteohub,2013-06-13 11:23:00,
2013-06-13 07:28:00,52.0,39.4,29.14,SW,225,0.0,2.0,62,0.00,,,0.00,meteohub,2013-06-13 11:28:00,
2013-06-13 07:33:00,52.3,39.7,29.14,WSW,248,0.0,2.0,62,0.00,,,0.00,meteohub,2013-06-13 11:33:00,
2013-06-13 07:38:00,52.9,40.3,29.14,SW,225,2.0,2.0,62,0.00,,,0.00,meteohub,2013-06-13 11:38:00,
2013-06-13 07:43:00,53.1,40.5,29.14,WSW,248,0.0,2.0,62,0.00,,,0.00,meteohub,2013-06-13 11:43:00,
2013-06-13 07:48:00,53.4,40.3,29.14,West,270,0.0,2.0,61,0.00,,,0.00,meteohub,2013-06-13 11:48:00,
2013-06-13 07:53:00,53.8,40.6,29.14,WNW,293,0.0,3.0,61,0.00,,,0.00,meteohub,2013-06-13 11:53:00,
2013-06-13 07:58:00,54.0,41.2,29.14,SSW,203,3.0,4.0,62,0.00,,,0.00,meteohub,2013-06-13 11:58:00,
2013-06-13 08:03:00,54.3,41.5,29.14,WSW,248,2.0,4.0,62,0.00,,,0.00,meteohub,2013-06-13 12:03:00,
2013-06-13 08:08:00,54.5,41.7,29.14,WNW,293,3.0,4.0,62,0.00,,,0.00,meteohub,2013-06-13 12:08:00,
2013-06-13 08:13:00,54.7,41.9,29.14,SW,225,0.0,4.0,62,0.00,,,0.00,meteohub,2013-06-13 12:13:00,
2013-06-13 08:18:00,55.0,42.6,29.14,South,180,1.0,4.0,63,0.00,,,0.00,meteohub,2013-06-13 12:18:00,
2013-06-13 08:23:00,55.2,42.8,29.14,NE,45,3.0,4.0,63,0.00,,,0.00,meteohub,2013-06-13 12:23:00,
2013-06-13 08:28:00,55.4,43.3,29.14,NE,45,5.0,5.0,64,0.00,,,0.00,meteohub,2013-06-13 12:28:00,
2013-06-13 08:33:00,55.8,44.2,29.14,WNW,293,5.0,5.0,65,0.00,,,0.00,meteohub,2013-06-13 12:33:00,
2013-06-13 08:38:00,55.8,44.6,29.14,SSE,158,4.0,5.0,66,0.00,,,0.00,meteohub,2013-06-13 12:38:00,
2013-06-13 08:43:00,55.9,45.1,29.14,SSW,203,2.0,5.0,67,0.00,,,0.00,meteohub,2013-06-13 12:43:00,
2013-06-13 08:48:00,55.9,45.1,29.14,SW,225,3.0,5.0,67,0.00,,,0.00,meteohub,2013-06-13 12:48:00,
2013-06-13 08:53:00,56.3,45.5,29.14,East,90,2.0,4.0,67,0.00,,,0.00,meteohub,2013-06-13 12:53:00,
2013-06-13 08:58:00,56.5,46.0,29.14,SSW,203,2.0,3.0,68,0.00,,,0.00,meteohub,2013-06-13 12:58:00,
2013-06-13 09:04:00,56.7,46.2,29.14,NE,45,0.0,3.0,68,0.00,,,0.00,meteohub,2013-06-13 13:04:00,
2013-06-13 09:09:00,57.0,46.6,29.14,SW,225,2.0,4.0,68,0.00,,,0.00,meteohub,2013-06-13 13:09:00,
2013-06-13 09:14:00,57.4,47.3,29.14,SSE,158,5.0,5.0,69,0.00,,,0.00,meteohub,2013-06-13 13:14:00,
2013-06-13 09:19:00,57.7,48.0,29.14,SSW,203,2.0,4.0,70,0.00,,,0.00,meteohub,2013-06-13 13:19:00,
2013-06-13 09:24:00,57.9,48.2,29.14,South,180,2.0,5.0,70,0.00,,,0.00,meteohub,2013-06-13 13:24:00,
2013-06-13 09:29:00,58.3,48.9,29.14,WSW,248,2.0,5.0,71,0.00,,,0.00,meteohub,2013-06-13 13:29:00,
2013-06-13 09:34:00,58.8,49.5,29.14,NW,315,2.0,5.0,71,0.00,,,0.00,meteohub,2013-06-13 13:34:00,
2013-06-13 09:39:00,59.0,50.0,29.14,SSW,203,3.0,4.0,72,0.00,,,0.00,meteohub,2013-06-13 13:39:00,
2013-06-13 09:44:00,59.0,50.0,29.14,North,0,4.0,6.0,72,0.00,,,0.00,meteohub,2013-06-13 13:44:00,
2013-06-13 09:49:00,59.7,50.7,29.14,WNW,293,3.0,6.0,72,0.00,,,0.00,meteohub,2013-06-13 13:49:00,
2013-06-13 09:54:00,60.3,51.3,29.14,SE,135,3.0,4.0,72,0.00,,,0.00,meteohub,2013-06-13 13:54:00,
2013-06-13 10:00:00,60.3,51.3,29.14,ENE,68,6.0,6.0,72,0.00,,,0.00,meteohub,2013-06-13 14:00:00,
2013-06-13 10:05:00,60.8,51.8,29.14,SE,135,2.0,6.0,72,0.00,,,0.00,meteohub,2013-06-13 14:05:00,
2013-06-13 10:10:00,61.0,52.0,29.14,SW,225,0.0,6.0,72,0.00,,,0.00,meteohub,2013-06-13 14:10:00,
2013-06-13 10:15:00,61.3,52.2,29.14,SSE,158,4.0,6.0,72,0.00,,,0.00,meteohub,2013-06-13 14:15:00,
2013-06-13 10:20:00,61.7,52.5,29.14,North,0,6.0,6.0,72,0.00,,,0.00,meteohub,2013-06-13 14:20:00,
2013-06-13 10:25:00,61.7,52.5,29.14,NNW,338,2.0,4.0,72,0.00,,,0.00,meteohub,2013-06-13 14:25:00,
2013-06-13 10:30:00,61.7,52.5,29.14,WNW,293,4.0,6.0,72,0.00,,,0.00,meteohub,2013-06-13 14:30:00,
2013-06-13 10:35:00,61.7,52.5,29.14,SSW,203,2.0,6.0,72,0.00,,,0.00,meteohub,2013-06-13 14:35:00,
2013-06-13 10:40:00,62.1,52.9,29.14,SSW,203,3.0,6.0,72,0.00,,,0.00,meteohub,2013-06-13 14:40:00,
2013-06-13 10:45:00,62.1,52.9,29.14,NW,315,3.0,6.0,72,0.00,,,0.00,meteohub,2013-06-13 14:45:00,
2013-06-13 10:50:00,62.1,52.9,29.14,WSW,248,3.0,7.0,72,0.00,,,0.00,meteohub,2013-06-13 14:50:00,
2013-06-13 10:55:00,62.6,53.4,29.14,NNE,23,3.0,7.0,72,0.00,,,0.00,meteohub,2013-06-13 14:55:00,
2013-06-13 11:00:00,63.1,54.3,29.14,NNW,338,2.0,7.0,73,0.00,,,0.00,meteohub,2013-06-13 15:00:00,
2013-06-13 11:05:00,63.7,54.5,29.14,WNW,293,4.0,6.0,72,0.00,,,0.00,meteohub,2013-06-13 15:05:00,
2013-06-13 11:10:00,63.5,54.3,29.14,WSW,248,2.0,6.0,72,0.00,,,0.00,meteohub,2013-06-13 15:10:00,
2013-06-13 11:15:00,63.1,54.0,29.14,South,180,2.0,6.0,72,0.00,,,0.00,meteohub,2013-06-13 15:15:00,
2013-06-13 11:20:00,63.1,54.0,29.14,NNW,338,3.0,7.0,72,0.00,,,0.00,meteohub,2013-06-13 15:20:00,
2013-06-13 11:25:00,63.5,54.3,29.14,SW,225,5.0,7.0,72,0.00,,,0.00,meteohub,2013-06-13 15:25:00,
2013-06-13 11:30:00,64.0,54.9,29.14,SE,135,3.0,7.0,72,0.00,,,0.00,meteohub,2013-06-13 15:30:00,
2013-06-13 11:35:00,64.0,54.9,29.14,SSW,203,5.0,7.0,72,0.00,,,0.00,meteohub,2013-06-13 15:35:00,
2013-06-13 11:41:00,63.9,54.3,29.14,SW,225,5.0,7.0,71,0.00,,,0.00,meteohub,2013-06-13 15:41:00,
2013-06-13 11:46:00,63.9,54.7,29.14,SSW,203,8.0,8.0,72,0.00,,,0.00,meteohub,2013-06-13 15:46:00,
2013-06-13 11:51:00,64.2,55.0,29.14,WSW,248,3.0,8.0,72,0.00,,,0.00,meteohub,2013-06-13 15:51:00,
2013-06-13 11:56:00,64.8,55.6,29.14,SW,225,7.0,8.0,72,0.00,,,0.00,meteohub,2013-06-13 15:56:00,
2013-06-13 12:01:00,65.3,56.1,29.14,NNW,338,2.0,8.0,72,0.00,,,0.00,meteohub,2013-06-13 16:01:00,
2013-06-13 12:06:00,65.7,55.9,29.14,NNE,23,4.0,7.0,71,0.00,,,0.00,meteohub,2013-06-13 16:06:00,
2013-06-13 12:11:00,65.8,56.1,29.14,NNE,23,4.0,4.0,71,0.00,,,0.00,meteohub,2013-06-13 16:11:00,
2013-06-13 12:16:00,65.5,55.8,29.14,SSE,158,9.0,9.0,71,0.00,,,0.00,meteohub,2013-06-13 16:16:00,
2013-06-13 12:21:00,65.7,55.9,29.14,WNW,293,1.0,9.0,71,0.00,,,0.00,meteohub,2013-06-13 16:21:00,
2013-06-13 12:26:00,66.2,56.5,29.14,North,0,2.0,9.0,71,0.00,,,0.00,meteohub,2013-06-13 16:26:00,
2013-06-13 12:31:00,66.7,57.0,29.14,WNW,293,5.0,6.0,71,0.00,,,0.00,meteohub,2013-06-13 16:31:00,
2013-06-13 12:36:00,67.1,57.4,29.14,SW,225,2.0,8.0,71,0.00,,,0.00,meteohub,2013-06-13 16:36:00,
2013-06-13 12:41:00,67.5,57.7,29.14,NW,315,2.0,8.0,71,0.00,,,0.00,meteohub,2013-06-13 16:41:00,
2013-06-13 12:46:00,68.0,57.9,29.14,WSW,248,5.0,6.0,70,0.00,,,0.00,meteohub,2013-06-13 16:46:00,
2013-06-13 12:51:00,68.4,57.7,29.14,North,0,2.0,5.0,69,0.00,,,0.00,meteohub,2013-06-13 16:51:00,
2013-06-13 12:56:00,68.5,57.9,29.14,NW,315,4.0,10.0,69,0.00,,,0.00,meteohub,2013-06-13 16:56:00,
2013-06-13 13:01:00,68.7,58.1,29.14,WSW,248,6.0,10.0,69,0.00,,,0.00,meteohub,2013-06-13 17:01:00,
2013-06-13 13:06:00,69.1,58.5,29.14,WSW,248,4.0,6.0,69,0.00,,,0.00,meteohub,2013-06-13 17:06:00,
2013-06-13 13:11:00,69.6,58.6,29.14,SSE,158,3.0,6.0,68,0.00,,,0.00,meteohub,2013-06-13 17:11:00,
2013-06-13 13:16:00,69.6,58.1,29.14,ENE,68,7.0,7.0,67,0.00,,,0.00,meteohub,2013-06-13 17:16:00,
2013-06-13 13:21:00,70.0,58.5,29.14,SW,225,2.0,7.0,67,0.00,,,0.00,meteohub,2013-06-13 17:21:00,
2013-06-13 13:26:00,70.2,58.6,29.14,NNE,23,3.0,7.0,67,0.00,,,0.00,meteohub,2013-06-13 17:26:00,
2013-06-13 13:31:00,70.3,58.8,29.14,WSW,248,5.0,7.0,67,0.00,,,0.00,meteohub,2013-06-13 17:31:00,
2013-06-13 13:36:00,70.3,58.8,29.14,NNE,23,2.0,7.0,67,0.00,,,0.00,meteohub,2013-06-13 17:36:00,
2013-06-13 13:41:00,70.3,58.8,29.14,SW,225,2.0,6.0,67,0.00,,,0.00,meteohub,2013-06-13 17:41:00,
2013-06-13 13:46:00,70.7,59.2,29.14,NNE,23,3.0,6.0,67,0.00,,,0.00,meteohub,2013-06-13 17:46:00,
2013-06-13 13:51:00,71.1,59.5,29.14,WSW,248,3.0,6.0,67,0.00,,,0.00,meteohub,2013-06-13 17:51:00,
2013-06-13 13:56:00,71.1,59.5,29.14,NNW,338,3.0,7.0,67,0.00,,,0.00,meteohub,2013-06-13 17:56:00,
2013-06-13 14:01:00,71.1,59.2,29.14,West,270,4.0,7.0,66,0.00,,,0.00,meteohub,2013-06-13 18:01:00,
2013-06-13 14:06:00,71.2,59.7,29.14,SW,225,0.0,5.0,67,0.00,,,0.00,meteohub,2013-06-13 18:06:00,
2013-06-13 14:11:00,71.4,59.0,29.14,WSW,248,6.0,6.0,65,0.00,,,0.00,meteohub,2013-06-13 18:11:00,
2013-06-13 14:16:00,71.2,58.8,29.14,NW,315,2.0,6.0,65,0.00,,,0.00,meteohub,2013-06-13 18:16:00,
2013-06-13 14:21:00,70.9,58.5,29.14,South,180,3.0,6.0,65,0.00,,,0.00,meteohub,2013-06-13 18:21:00,
2013-06-13 14:26:00,70.7,58.3,29.14,SSE,158,6.0,6.0,65,0.00,,,0.00,meteohub,2013-06-13 18:26:00,
2013-06-13 14:31:00,70.9,59.4,29.14,North,0,4.0,6.0,67,0.00,,,0.00,meteohub,2013-06-13 18:31:00,
2013-06-13 14:36:00,71.2,58.8,29.14,SE,135,4.0,6.0,65,0.00,,,0.00,meteohub,2013-06-13 18:36:00,
2013-06-13 14:41:00,71.8,59.7,29.14,WSW,248,2.0,5.0,66,0.00,,,0.00,meteohub,2013-06-13 18:41:00,
2013-06-13 14:46:00,72.3,59.9,29.14,SW,225,6.0,6.0,65,0.00,,,0.00,meteohub,2013-06-13 18:46:00,
2013-06-13 14:51:00,72.5,59.5,29.14,East,90,5.0,6.0,64,0.00,,,0.00,meteohub,2013-06-13 18:51:00,
2013-06-13 14:56:00,72.1,58.8,29.14,NW,315,6.0,8.0,63,0.00,,,0.00,meteohub,2013-06-13 18:56:00,
2013-06-13 15:02:00,72.1,58.8,29.14,WNW,293,3.0,8.0,63,0.00,,,0.00,meteohub,2013-06-13 19:02:00,
2013-06-13 15:07:00,71.8,59.0,29.14,ENE,68,4.0,6.0,64,0.00,,,0.00,meteohub,2013-06-13 19:07:00,
2013-06-13 15:12:00,71.6,58.8,29.14,SSW,203,3.0,6.0,64,0.00,,,0.00,meteohub,2013-06-13 19:12:00,
2013-06-13 15:17:00,72.0,59.2,29.14,SW,225,4.0,7.0,64,0.00,,,0.00,meteohub,2013-06-13 19:17:00,
2013-06-13 15:22:00,72.1,58.8,29.14,North,0,0.0,7.0,63,0.00,,,0.00,meteohub,2013-06-13 19:22:00,
2013-06-13 15:27:00,72.0,58.3,29.14,WNW,293,5.0,7.0,62,0.00,,,0.00,meteohub,2013-06-13 19:27:00,
2013-06-13 15:32:00,71.4,58.1,29.14,WSW,248,4.0,9.0,63,0.00,,,0.00,meteohub,2013-06-13 19:32:00,
2013-06-13 15:37:00,71.8,58.5,29.14,NNW,338,5.0,9.0,63,0.00,,,0.00,meteohub,2013-06-13 19:37:00,
2013-06-13 15:42:00,72.0,58.6,29.14,North,0,3.0,9.0,63,0.00,,,0.00,meteohub,2013-06-13 19:42:00,
2013-06-13 15:47:00,72.1,58.8,29.14,North,0,3.0,5.0,63,0.00,,,0.00,meteohub,2013-06-13 19:47:00,
2013-06-13 15:52:00,72.1,58.5,29.14,SW,225,5.0,7.0,62,0.00,,,0.00,meteohub,2013-06-13 19:52:00,
2013-06-13 15:57:00,72.1,58.8,29.14,SSE,158,4.0,10.0,63,0.00,,,0.00,meteohub,2013-06-13 19:57:00,
2013-06-13 16:02:00,71.8,58.1,29.14,SW,225,5.0,10.0,62,0.00,,,0.00,meteohub,2013-06-13 20:02:00,
2013-06-13 16:07:00,71.2,57.6,29.14,NW,315,4.0,9.0,62,0.00,,,0.00,meteohub,2013-06-13 20:07:00,
2013-06-13 16:12:00,70.3,57.2,29.14,WSW,248,11.0,12.0,63,0.00,,,0.00,meteohub,2013-06-13 20:12:00,
2013-06-13 16:17:00,70.3,57.2,29.14,WNW,293,3.0,12.0,63,0.00,,,0.00,meteohub,2013-06-13 20:17:00,
2013-06-13 16:22:00,70.0,57.2,29.14,South,180,5.0,11.0,64,0.00,,,0.00,meteohub,2013-06-13 20:22:00,
2013-06-13 16:27:00,69.6,56.8,29.14,WNW,293,5.0,11.0,64,0.00,,,0.00,meteohub,2013-06-13 20:27:00,
2013-06-13 16:32:00,69.4,56.7,29.14,WNW,293,6.0,11.0,64,0.00,,,0.00,meteohub,2013-06-13 20:32:00,
2013-06-13 16:37:00,69.4,56.7,29.14,SW,225,7.0,11.0,64,0.00,,,0.00,meteohub,2013-06-13 20:37:00,
2013-06-13 16:42:00,69.6,56.8,29.14,NNE,23,6.0,11.0,64,0.00,,,0.00,meteohub,2013-06-13 20:42:00,
2013-06-13 16:47:00,69.3,56.5,29.14,NW,315,7.0,8.0,64,0.00,,,0.00,meteohub,2013-06-13 20:47:00,
2013-06-13 16:52:00,68.9,56.7,29.14,WSW,248,5.0,8.0,65,0.00,,,0.00,meteohub,2013-06-13 20:52:00,
2013-06-13 16:57:00,68.5,56.3,29.14,WNW,293,9.0,9.0,65,0.00,,,0.00,meteohub,2013-06-13 20:57:00,
2013-06-13 17:02:00,68.0,55.8,29.14,WSW,248,5.0,17.0,65,0.00,,,0.00,meteohub,2013-06-13 21:02:00,
2013-06-13 17:07:00,67.8,55.6,29.14,NE,45,4.0,17.0,65,0.00,,,0.00,meteohub,2013-06-13 21:07:00,
2013-06-13 17:12:00,68.0,55.8,29.14,WNW,293,4.0,9.0,65,0.00,,,0.00,meteohub,2013-06-13 21:12:00,
2013-06-13 17:17:00,67.8,55.6,29.14,WSW,248,4.0,9.0,65,0.00,,,0.00,meteohub,2013-06-13 21:17:00,
2013-06-13 17:22:00,67.8,56.1,29.14,West,270,4.0,9.0,66,0.00,,,0.00,meteohub,2013-06-13 21:22:00,
2013-06-13 17:27:00,67.8,55.6,29.14,NNE,23,5.0,8.0,65,0.00,,,0.00,meteohub,2013-06-13 21:27:00,
2013-06-13 17:33:00,67.8,56.1,29.14,SSE,158,11.0,11.0,66,0.00,,,0.00,meteohub,2013-06-13 21:33:00,
2013-06-13 17:38:00,67.8,56.1,29.14,North,0,5.0,11.0,66,0.00,,,0.00,meteohub,2013-06-13 21:38:00,
2013-06-13 17:43:00,67.6,55.4,29.14,WNW,293,6.0,11.0,65,0.00,,,0.00,meteohub,2013-06-13 21:43:00,
2013-06-13 17:48:00,67.5,55.8,29.14,SSE,158,7.0,11.0,66,0.00,,,0.00,meteohub,2013-06-13 21:48:00,
2013-06-13 17:53:00,67.5,56.1,29.14,North,0,5.0,10.0,67,0.00,,,0.00,meteohub,2013-06-13 21:53:00,
2013-06-13 17:58:00,67.8,56.1,29.14,WSW,248,3.0,8.0,66,0.00,,,0.00,meteohub,2013-06-13 21:58:00,
2013-06-13 18:03:00,68.2,56.3,29.14,WSW,248,8.0,8.0,66,0.00,,,0.00,meteohub,2013-06-13 22:03:00,
2013-06-13 18:08:00,67.8,55.6,29.14,North,0,5.0,8.0,65,0.00,,,0.00,meteohub,2013-06-13 22:08:00,
2013-06-13 18:13:00,67.8,56.1,29.14,NNE,23,3.0,8.0,66,0.00,,,0.00,meteohub,2013-06-13 22:13:00,
2013-06-13 18:18:00,67.8,56.1,29.14,WSW,248,3.0,9.0,66,0.00,,,0.00,meteohub,2013-06-13 22:18:00,
2013-06-13 18:23:00,68.0,55.8,29.14,NW,315,3.0,9.0,65,0.00,,,0.00,meteohub,2013-06-13 22:23:00,
2013-06-13 18:47:00,67.5,55.2,29.14,NNE,23,5.0,8.0,65,0.00,,,0.00,meteohub,2013-06-13 22:47:00,
2013-06-13 18:52:00,67.3,55.6,29.14,WNW,293,2.0,8.0,66,0.00,,,0.00,meteohub,2013-06-13 22:52:00,
2013-06-13 18:57:00,67.1,55.4,29.14,WNW,293,3.0,6.0,66,0.00,,,0.00,meteohub,2013-06-13 22:57:00,
2013-06-13 19:02:00,66.7,55.0,29.14,WSW,248,5.0,8.0,66,0.00,,,0.00,meteohub,2013-06-13 23:02:00,
2013-06-13 19:07:00,66.6,55.2,29.14,NNE,23,2.0,8.0,67,0.00,,,0.00,meteohub,2013-06-13 23:07:00,
2013-06-13 19:12:00,66.6,55.2,29.14,SW,225,5.0,8.0,67,0.00,,,0.00,meteohub,2013-06-13 23:12:00,
2013-06-13 19:18:00,66.2,54.9,29.14,WSW,248,3.0,5.0,67,0.00,,,0.00,meteohub,2013-06-13 23:18:00,
2013-06-13 19:23:00,65.8,54.5,29.14,SSE,158,2.0,5.0,67,0.00,,,0.00,meteohub,2013-06-13 23:23:00,
2013-06-13 19:28:00,64.9,54.1,29.14,SW,225,2.0,6.0,68,0.00,,,0.00,meteohub,2013-06-13 23:28:00,
2013-06-13 19:33:00,64.4,54.0,29.14,SW,225,13.0,13.0,69,0.00,,,0.00,meteohub,2013-06-13 23:33:00,
2013-06-13 19:38:00,64.2,54.3,29.14,SSW,203,2.0,13.0,70,0.00,,,0.00,meteohub,2013-06-13 23:38:00,
2013-06-13 19:43:00,64.0,54.1,29.14,North,0,3.0,13.0,70,0.00,,,0.00,meteohub,2013-06-13 23:43:00,
2013-06-13 19:48:00,63.9,54.0,29.14,West,270,2.0,13.0,70,0.00,,,0.00,meteohub,2013-06-13 23:48:00,
2013-06-13 19:53:00,63.7,53.8,29.14,NE,45,0.0,6.0,70,0.00,,,0.00,meteohub,2013-06-13 23:53:00,
2013-06-13 19:58:00,63.5,54.0,29.14,SW,225,2.0,4.0,71,0.00,,,0.00,meteohub,2013-06-13 23:58:00,
2013-06-13 20:03:00,63.3,53.8,29.14,WSW,248,3.0,4.0,71,0.00,,,0.00,meteohub,2013-06-14 00:03:00,
2013-06-13 20:08:00,63.1,53.6,29.14,NW,315,2.0,4.0,71,0.00,,,0.00,meteohub,2013-06-14 00:08:00,
2013-06-13 20:13:00,63.1,54.0,29.14,WSW,248,0.0,4.0,72,0.00,,,0.00,meteohub,2013-06-14 00:13:00,
2013-06-13 20:18:00,63.1,54.0,29.14,North,0,2.0,4.0,72,0.00,,,0.00,meteohub,2013-06-14 00:18:00,
2013-06-13 20:23:00,63.0,53.8,29.14,NNW,338,2.0,3.0,72,0.00,,,0.00,meteohub,2013-06-14 00:23:00,
2013-06-13 20:28:00,62.4,53.2,29.14,ENE,68,2.0,5.0,72,0.00,,,0.00,meteohub,2013-06-14 00:28:00,
2013-06-13 20:34:00,62.1,52.9,29.14,South,180,2.0,6.0,72,0.00,,,0.00,meteohub,2013-06-14 00:34:00,
2013-06-13 20:39:00,61.7,52.5,29.14,WSW,248,3.0,6.0,72,0.00,,,0.00,meteohub,2013-06-14 00:39:00,
2013-06-13 20:44:00,61.7,52.5,29.14,ESE,113,3.0,6.0,72,0.00,,,0.00,meteohub,2013-06-14 00:44:00,
2013-06-13 20:49:00,61.3,52.2,29.14,East,90,3.0,4.0,72,0.00,,,0.00,meteohub,2013-06-14 00:49:00,
2013-06-13 20:54:00,61.0,52.0,29.14,NNE,23,0.0,4.0,72,0.00,,,0.00,meteohub,2013-06-14 00:54:00,
2013-06-13 20:59:00,60.4,51.8,29.14,NE,45,2.0,4.0,73,0.00,,,0.00,meteohub,2013-06-14 00:59:00,
2013-06-13 21:04:00,59.9,51.3,29.14,NE,45,2.0,4.0,73,0.00,,,0.00,meteohub,2013-06-14 01:04:00,
2013-06-13 21:09:00,59.0,50.4,29.14,NE,45,2.0,2.0,73,0.00,,,0.00,meteohub,2013-06-14 01:09:00,
2013-06-13 21:14:00,59.0,50.4,29.14,NE,45,0.0,2.0,73,0.00,,,0.00,meteohub,2013-06-14 01:14:00,
2013-06-13 21:19:00,59.0,50.4,29.14,WNW,293,0.0,2.0,73,0.00,,,0.00,meteohub,2013-06-14 01:19:00,
2013-06-13 21:24:00,58.6,50.4,29.14,WNW,293,0.0,3.0,74,0.00,,,0.00,meteohub,2013-06-14 01:24:00,
2013-06-13 21:29:00,58.5,50.2,29.14,North,0,0.0,3.0,74,0.00,,,0.00,meteohub,2013-06-14 01:29:00,
2013-06-13 21:34:00,58.3,50.0,29.14,SE,135,0.0,3.0,74,0.00,,,0.00,meteohub,2013-06-14 01:34:00,
2013-06-13 21:39:00,57.9,49.6,29.14,NE,45,0.0,0.0,74,0.00,,,0.00,meteohub,2013-06-14 01:39:00,
2013-06-13 21:44:00,57.7,49.5,29.14,North,0,0.0,0.0,74,0.00,,,0.00,meteohub,2013-06-14 01:44:00,
2013-06-13 21:49:00,57.4,49.1,29.14,SW,225,0.0,0.0,74,0.00,,,0.00,meteohub,2013-06-14 01:49:00,
2013-06-13 21:54:00,57.4,49.1,29.14,WSW,248,2.0,0.0,74,0.00,,,0.00,meteohub,2013-06-14 01:54:00,
2013-06-13 21:59:00,57.4,49.1,29.14,SSE,158,0.0,2.0,74,0.00,,,0.00,meteohub,2013-06-14 01:59:00,
2013-06-13 22:04:00,57.4,49.1,29.14,NNE,23,0.0,2.0,74,0.00,,,0.00,meteohub,2013-06-14 02:04:00,
2013-06-13 22:09:00,57.4,49.1,29.14,North,0,0.0,2.0,74,0.00,,,0.00,meteohub,2013-06-14 02:09:00,
2013-06-13 22:14:00,57.4,49.1,29.14,South,180,0.0,0.0,74,0.00,,,0.00,meteohub,2013-06-14 02:14:00,
2013-06-13 22:19:00,57.2,48.9,29.14,ESE,113,0.0,0.0,74,0.00,,,0.00,meteohub,2013-06-14 02:19:00,
2013-06-13 22:24:00,57.2,48.9,29.14,NNE,23,0.0,0.0,74,0.00,,,0.00,meteohub,2013-06-14 02:24:00,
2013-06-13 22:29:00,57.2,48.9,29.14,North,0,0.0,0.0,74,0.00,,,0.00,meteohub,2013-06-14 02:29:00,
2013-06-13 22:34:00,57.0,48.7,29.14,NE,45,0.0,0.0,74,0.00,,,0.00,meteohub,2013-06-14 02:34:00,
2013-06-13 22:39:00,56.8,48.6,29.14,NNE,23,0.0,0.0,74,0.00,,,0.00,meteohub,2013-06-14 02:39:00,
2013-06-13 22:44:00,56.7,48.4,29.14,NE,45,0.0,2.0,74,0.00,,,0.00,meteohub,2013-06-14 02:44:00,
2013-06-13 22:49:00,56.7,48.4,29.14,NNW,338,0.0,2.0,74,0.00,,,0.00,meteohub,2013-06-14 02:49:00,
2013-06-13 22:54:00,56.5,48.4,29.14,NW,315,0.0,2.0,74,0.00,,,0.00,meteohub,2013-06-14 02:54:00,
2013-06-13 22:59:00,56.3,47.8,29.14,North,0,0.0,2.0,73,0.00,,,0.00,meteohub,2013-06-14 02:59:00,
2013-06-13 23:04:00,56.1,47.7,29.14,NNE,23,0.0,0.0,73,0.00,,,0.00,meteohub,2013-06-14 03:04:00,
2013-06-13 23:09:00,56.1,47.7,29.14,North,0,0.0,0.0,73,0.00,,,0.00,meteohub,2013-06-14 03:09:00,
2013-06-13 23:14:00,56.3,47.8,29.14,NE,45,0.0,0.0,73,0.00,,,0.00,meteohub,2013-06-14 03:14:00,
2013-06-13 23:20:00,56.1,47.7,29.14,NNW,338,0.0,0.0,73,0.00,,,0.00,meteohub,2013-06-14 03:20:00,
2013-06-13 23:24:00,55.9,47.5,29.14,NE,45,0.0,0.0,73,0.00,,,0.00,meteohub,2013-06-14 03:24:00,
2013-06-13 23:30:00,55.9,47.5,29.14,NE,45,0.0,0.0,73,0.00,,,0.00,meteohub,2013-06-14 03:30:00,
2013-06-13 23:35:00,56.1,47.7,29.14,ESE,113,2.0,2.0,73,0.00,,,0.00,meteohub,2013-06-14 03:35:00,
2013-06-13 23:40:00,56.7,48.4,29.14,SSE,158,0.0,2.0,74,0.00,,,0.00,meteohub,2013-06-14 03:40:00,
2013-06-13 23:45:00,56.8,48.6,29.14,ENE,68,0.0,2.0,74,0.00,,,0.00,meteohub,2013-06-14 03:45:00,
2013-06-13 23:50:00,57.0,48.7,29.14,NW,315,0.0,2.0,74,0.00,,,0.00,meteohub,2013-06-14 03:50:00,
2013-06-13 23:55:00,56.8,48.6,29.14,SSE,158,0.0,2.0,74,0.00,,,0.00,meteohub,2013-06-14 03:55:00,